DW5686 Weather Reports


time (UTC)temp
C
wind
direction
speed
KPH
gust
KPH
rain 1hr
cm
rain 24hr
cm
rain mn
cm
humidity
%
barometer
mb
20260508145503 17 32 8.0 16.1 0.00 0.05 0.00 53 1017.8
20260508145025 17 340 3.2 17.7 0.00 0.05 0.00 55 1017.9
20260508144503 17 39 11.3 17.7 0.00 0.05 0.00 48 1018.0
20260508144003 17 21 8.0 12.9 0.00 0.05 0.00 56 1018.1
20260508143525 17 30 4.8 12.9 0.00 0.05 0.00 53 1018.0
20260508143004 17 146 1.6 11.3 0.00 0.05 0.00 48 1018.0
20260508142503 17 52 3.2 11.3 0.00 0.05 0.00 49 1018.1
20260508142003 17 170 1.6 8.0 0.00 0.05 0.00 55 1018.0
20260508141503 16 128 3.2 12.9 0.00 0.05 0.00 60 1018.1
20260508141003 16 19 8.0 12.9 0.00 0.05 0.00 63 1018.0
20260508140525 16 8 0.0 9.7 0.00 0.05 0.00 58 1018.1
20260508140003 16 8 6.4 16.1 0.00 0.05 0.00 64 1018.1
20260508135504 15 39 9.7 17.7 0.00 0.05 0.00 60 1018.1
20260508135003 16 12 11.3 17.7 0.00 0.05 0.00 63 1018.1
20260508134504 15 25 4.8 12.9 0.00 0.05 0.00 63 1018.0
20260508134003 15 26 6.4 11.3 0.00 0.05 0.00 62 1017.9
20260508133502 15 40 4.8 9.7 0.00 0.05 0.00 61 1018.0
20260508133003 15 29 3.2 16.1 0.00 0.05 0.00 69 1018.0
20260508132503 15 26 9.7 16.1 0.00 0.05 0.00 63 1017.8
20260508132004 14 23 9.7 14.5 0.00 0.05 0.00 69 1017.9
20260508131503 14 17 8.0 19.3 0.00 0.05 0.00 68 1017.9
20260508131003 14 38 6.4 19.3 0.00 0.05 0.00 70 1017.9
20260508130504 14 40 4.8 12.9 0.00 0.05 0.00 71 1017.8
20260508130003 13 40 8.0 12.9 0.00 0.05 0.00 69 1017.7
20260508125503 13 42 6.4 11.3 0.00 0.05 0.00 70 1017.7
20260508125003 13 27 4.8 11.3 0.00 0.05 0.00 75 1017.7
20260508124503 13 32 4.8 11.3 0.00 0.05 0.00 75 1017.5
20260508124004 12 30 6.4 16.1 0.00 0.05 0.00 78 1017.5
20260508123503 12 36 9.7 16.1 0.00 0.05 0.00 77 1017.5
20260508123003 12 28 4.8 12.9 0.00 0.05 0.00 81 1017.5
20260508122525 12 34 4.8 16.1 0.00 0.05 0.00 86 1017.3
20260508122003 11 48 8.0 16.1 0.00 0.05 0.00 83 1017.4
20260508121503 11 34 6.4 14.5 0.00 0.05 0.00 91 1017.3
20260508121003 11 20 8.0 14.5 0.00 0.05 0.00 92 1017.2
20260508120524 11 40 6.4 11.3 0.00 0.05 0.00 93 1017.3
20260508120004 11 19 3.2 3.2 0.00 0.05 0.00 93 1017.2
20260508115504 11 19 3.2 4.8 0.00 0.05 0.00 93 1017.2
20260508115003 10 19 1.6 4.8 0.00 0.05 0.00 93 1017.1
20260508114504 10 19 0.0 6.4 0.00 0.05 0.00 93 1017.0
20260508114004 10 19 3.2 6.4 0.00 0.05 0.00 93 1016.8
20260508113524 10 50 3.2 3.2 0.00 0.05 0.00 93 1016.8
20260508113004 10 51 0.0 3.2 0.00 0.05 0.00 95 1016.8
20260508112503 10 51 1.6 3.2 0.00 0.05 0.00 93 1016.6
20260508112003 10 0 0.0 1.6 0.00 0.05 0.00 93 1016.6
20260508111503 10 198 0.0 3.2 0.00 0.05 0.00 93 1016.5
20260508111003 10 0 0.0 3.2 0.00 0.05 0.00 93 1016.4
20260508110504 9 25 0.0 3.2 0.00 0.05 0.00 93 1016.3
20260508110004 9 0 0.0 1.6 0.00 0.05 0.00 93 1016.4
20260508105504 9 25 0.0 1.6 0.00 0.05 0.00 93 1016.3
20260508105003 9 0 0.0 0.0 0.00 0.05 0.00 93 1016.2
20260508104503 9 0 0.0 0.0 0.00 0.05 0.00 93 1016.2
20260508104003 9 0 0.0 1.6 0.00 0.05 0.00 93 1016.1
20260508103503 9 25 0.0 3.2 0.00 0.05 0.00 93 1015.9
20260508103025 9 25 1.6 3.2 0.00 0.05 0.00 93 1015.9
20260508102504 9 0 0.0 0.0 0.00 0.05 0.00 93 1015.6
20260508102003 9 0 0.0 1.6 0.00 0.05 0.00 93 1015.5
20260508101503 10 0 0.0 1.6 0.00 0.05 0.00 93 1015.4
20260508101003 10 25 0.0 1.6 0.00 0.05 0.00 93 1015.4
20260508100504 10 0 0.0 3.2 0.00 0.05 0.00 93 1015.5
20260508100024 10 0 0.0 3.2 0.00 0.05 0.00 93 1015.4
20260508095503 10 25 1.6 3.2 0.00 0.05 0.00 93 1015.3
20260508095004 10 25 3.2 3.2 0.00 0.05 0.00 93 1015.3
20260508094524 10 25 0.0 3.2 0.00 0.05 0.00 93 1015.3
20260508094004 10 25 1.6 4.8 0.00 0.05 0.00 93 1015.2
20260508093524 10 25 3.2 4.8 0.00 0.05 0.00 93 1015.2
20260508093003 10 0 0.0 0.0 0.00 0.05 0.00 93 1015.4
20260508092504 10 0 0.0 3.2 0.00 0.05 0.00 93 1015.2
20260508092004 10 25 0.0 3.2 0.00 0.05 0.00 93 1015.1
20260508091504 10 25 1.6 3.2 0.00 0.05 0.00 93 1015.1
20260508091004 10 0 0.0 0.0 0.00 0.05 0.00 93 1015.1
20260508090504 10 0 0.0 3.2 0.00 0.05 0.00 93 1015.1
20260508090003 10 25 0.0 3.2 0.00 0.05 0.00 93 1015.1
20260508085524 10 25 1.6 3.2 0.00 0.05 0.00 93 1015.0
20260508085003 10 0 0.0 0.0 0.00 0.05 0.00 93 1015.1
20260508084503 10 0 0.0 0.0 0.00 0.05 0.00 93 1015.0
20260508084004 10 0 0.0 1.6 0.00 0.05 0.00 93 1015.1
20260508083524 11 25 0.0 3.2 0.00 0.05 0.00 93 1015.0
20260508083004 11 25 0.0 4.8 0.00 0.05 0.00 93 1014.8
20260508082503 11 0 0.0 4.8 0.00 0.05 0.00 93 1014.7
20260508082003 11 25 0.0 3.2 0.00 0.05 0.00 93 1014.8
20260508081524 11 0 0.0 4.8 0.00 0.05 0.00 93 1014.7
20260508081024 11 25 3.2 4.8 0.00 0.05 0.00 93 1014.7
20260508080503 11 25 3.2 4.8 0.00 0.05 0.00 93 1014.7
20260508080003 11 25 1.6 4.8 0.00 0.05 0.00 93 1014.6
20260508075503 11 0 0.0 0.0 0.00 0.05 0.00 93 1014.5
20260508075003 11 0 0.0 0.0 0.00 0.05 0.00 93 1014.5
20260508074524 11 0 0.0 0.0 0.00 0.05 0.00 93 1014.4
20260508074004 11 0 0.0 0.0 0.00 0.05 0.00 93 1014.5
20260508073503 11 0 0.0 0.0 0.00 0.05 0.00 93 1014.6
20260508073002 11 0 0.0 0.0 0.00 0.05 0.00 93 1014.5
20260508072523 11 0 0.0 0.0 0.00 0.05 0.00 93 1014.5
20260508072003 11 0 0.0 0.0 0.00 0.05 0.00 93 1014.5
20260508071502 11 0 0.0 0.0 0.00 0.05 0.00 93 1014.4
20260508071003 11 0 0.0 0.0 0.00 0.05 0.00 93 1014.4
20260508070502 11 0 0.0 0.0 0.00 0.05 0.00 93 1014.3
20260508070003 11 0 0.0 0.0 0.00 0.05 0.00 93 1014.4
20260508065502 11 0 0.0 0.0 0.00 0.05 0.00 93 1014.3
20260508065023 11 0 0.0 0.0 0.00 0.05 0.00 93 1014.3
20260508064503 11 0 0.0 0.0 0.00 0.05 0.00 93 1014.4
20260508064002 11 0 0.0 0.0 0.00 0.05 0.00 93 1014.2
20260508063502 11 0 0.0 3.2 0.00 0.05 0.00 92 1014.1
20260508063003 12 25 0.0 3.2 0.00 0.05 0.00 93 1014.3
20260508062502 12 25 3.2 3.2 0.00 0.05 0.00 93 1014.4
20260508062002 12 25 1.6 3.2 0.00 0.05 0.00 93 1014.3
20260508061502 12 25 0.0 1.6 0.00 0.05 0.00 93 1014.3
20260508061023 12 0 0.0 0.0 0.00 0.05 0.00 93 1014.3
20260508060502 12 0 0.0 0.0 0.00 0.05 0.00 93 1014.3
20260508060023 12 0 0.0 0.0 0.00 0.05 0.00 92 1014.3
20260508055502 12 0 0.0 0.0 0.00 0.05 0.00 92 1014.5
20260508055002 12 0 0.0 3.2 0.00 0.05 0.00 92 1014.4
20260508054502 12 0 0.0 3.2 0.00 0.05 0.00 93 1014.3
20260508054002 12 0 0.0 3.2 0.00 0.05 0.00 93 1014.3
20260508053502 12 25 1.6 3.2 0.00 0.05 0.00 93 1014.3
20260508053003 12 25 0.0 1.6 0.00 0.05 0.00 92 1014.4
20260508052502 12 0 0.0 0.0 0.00 0.05 0.00 92 1014.2
20260508052023 12 0 0.0 3.2 0.00 0.05 0.00 92 1014.3
20260508051502 12 25 1.6 3.2 0.00 0.05 0.00 92 1014.4
20260508051024 12 25 1.6 3.2 0.00 0.05 0.00 92 1014.2
20260508050503 12 0 0.0 3.2 0.00 0.05 0.00 92 1014.2
20260508050023 12 25 0.0 3.2 0.00 0.05 0.00 92 1014.1
20260508045523 12 25 1.6 3.2 0.00 0.05 0.00 92 1014.0
20260508045002 12 25 0.0 1.6 0.00 0.05 0.00 92 1014.0
20260508044504 12 25 0.0 1.6 0.00 0.05 0.00 92 1013.9
20260508044002 12 0 0.0 1.6 0.00 0.05 0.00 92 1013.8
20260508043502 12 0 0.0 1.6 0.00 0.05 0.00 92 1013.9
20260508043023 12 25 0.0 1.6 0.00 0.05 0.00 92 1013.8
20260508042523 13 25 0.0 3.2 0.00 0.05 0.00 92 1013.9
20260508042023 13 25 0.0 3.2 0.00 0.05 0.00 92 1013.8
20260508041502 13 25 1.6 3.2 0.00 0.05 0.00 92 1013.7
20260508041003 13 25 0.0 3.2 0.00 0.05 0.00 92 1013.6
20260508040524 13 25 1.6 3.2 0.00 0.05 0.00 92 1013.8
20260508040004 13 25 0.0 1.6 0.00 0.05 0.00 92 1013.7
20260508035503 13 0 0.0 0.0 0.00 0.05 0.05 92 1013.7
20260508035002 13 0 0.0 0.0 0.00 0.05 0.05 92 1013.7
20260508034524 13 0 0.0 1.6 0.00 0.05 0.05 92 1013.8
20260508034003 13 0 0.0 3.2 0.00 0.05 0.05 92 1013.6
20260508033502 13 25 1.6 3.2 0.00 0.05 0.05 92 1013.6
20260508033002 13 25 3.2 3.2 0.00 0.05 0.05 92 1013.6
20260508032523 13 0 0.0 1.6 0.00 0.05 0.05 92 1013.5
20260508032003 13 0 0.0 1.6 0.00 0.05 0.05 91 1013.6
20260508031502 13 25 0.0 3.2 0.00 0.05 0.05 91 1013.6
20260508031003 13 25 0.0 3.2 0.00 0.05 0.05 91 1013.6
20260508030524 13 25 1.6 3.2 0.00 0.05 0.05 91 1013.5
20260508030002 13 0 0.0 1.6 0.00 0.05 0.05 91 1013.5
20260508025523 13 25 0.0 3.2 0.00 0.05 0.05 91 1013.5
20260508025002 13 25 0.0 3.2 0.00 0.05 0.05 91 1013.4
20260508024523 13 25 1.6 3.2 0.00 0.05 0.05 91 1013.4
20260508024002 13 0 0.0 3.2 0.00 0.05 0.05 91 1013.3
20260508023502 13 25 1.6 3.2 0.00 0.05 0.05 91 1013.2
20260508023002 14 25 0.0 4.8 0.00 0.05 0.05 89 1013.2
20260508022503 14 25 0.0 6.4 0.00 0.05 0.05 89 1013.2
20260508022003 14 25 3.2 11.3 0.00 0.05 0.05 89 1013.1
20260508021523 14 27 6.4 11.3 0.00 0.05 0.05 89 1013.1
20260508021023 14 16 1.6 8.0 0.00 0.05 0.05 89 1013.0
20260508020503 14 17 4.8 8.0 0.00 0.05 0.05 89 1012.8
20260508020024 14 30 3.2 9.7 0.00 0.05 0.05 89 1012.8
20260508015502 14 42 4.8 9.7 0.00 0.05 0.05 89 1012.7
20260508015003 14 36 3.2 8.0 0.00 0.05 0.05 89 1012.7
20260508014503 14 36 3.2 8.0 0.00 0.05 0.05 89 1012.6
20260508014003 14 36 3.2 6.4 0.00 0.05 0.05 89 1012.3
20260508013502 14 30 3.2 14.5 0.00 0.05 0.05 89 1012.3
20260508013023 14 41 6.4 14.5 0.00 0.05 0.05 89 1012.3
20260508012523 14 33 9.7 14.5 0.00 0.05 0.05 89 1012.0
20260508012003 14 23 6.4 14.5 0.00 0.05 0.05 89 1012.2
20260508011503 14 31 6.4 16.1 0.00 0.05 0.05 88 1012.1
20260508011023 14 27 9.7 16.1 0.00 0.05 0.05 88 1012.0
20260508010503 14 35 6.4 19.3 0.00 0.05 0.05 88 1011.8
20260508010003 14 27 9.7 19.3 0.00 0.05 0.05 89 1011.6
20260508005502 14 38 12.9 17.7 0.00 0.05 0.05 88 1011.9
20260508005003 14 29 8.0 12.9 0.00 0.05 0.05 88 1011.9
20260508004502 14 9 3.2 11.3 0.00 0.05 0.05 89 1011.7
20260508004003 14 23 4.8 11.3 0.00 0.05 0.05 89 1011.4
20260508003502 14 15 3.2 25.7 0.00 0.05 0.05 89 1011.1
20260508003004 14 25 9.7 25.7 0.00 0.05 0.05 89 1010.9
20260508002502 14 37 12.9 24.1 0.00 0.05 0.05 89 1010.9
20260508002003 14 4 6.4 19.3 0.00 0.05 0.05 89 1011.1
20260508001524 14 36 12.9 19.3 0.00 0.05 0.05 89 1010.8
20260508001004 15 21 12.9 19.3 0.00 0.05 0.05 89 1010.7
20260508000502 15 22 9.7 25.7 0.00 0.05 0.05 89 1010.6
20260508000003 15 358 9.7 25.7 0.00 0.05 0.05 89 1010.7
20260507235502 15 35 9.7 22.5 0.00 0.05 0.05 89 1010.6
20260507235004 15 11 9.7 29.0 0.00 0.05 0.05 89 1010.4
20260507234503 15 16 14.5 29.0 0.00 0.05 0.05 89 1009.5
20260507234004 15 27 12.9 25.7 0.00 0.05 0.05 89 1009.6
20260507233504 15 19 9.7 25.7 0.00 0.05 0.05 89 1009.6
20260507233004 15 29 17.7 25.7 0.00 0.05 0.05 89 1009.5
20260507232503 15 17 14.5 25.7 0.00 0.05 0.05 89 1009.1
20260507232004 15 23 19.3 32.2 0.00 0.05 0.05 89 1009.2
20260507231503 15 24 12.9 32.2 0.00 0.05 0.05 89 1009.5
20260507231004 15 22 19.3 32.2 0.00 0.05 0.05 89 1009.4
20260507230504 15 20 19.3 35.4 0.00 0.05 0.05 89 1009.3
20260507230004 15 24 20.9 35.4 0.00 0.05 0.05 89 1009.2
20260507225523 15 32 20.9 30.6 0.00 0.05 0.05 89 1008.7
20260507225002 15 11 11.3 41.8 0.00 0.05 0.05 88 1008.9
20260507224503 16 20 22.5 43.5 0.00 0.05 0.05 87 1008.2
20260507224002 16 21 27.4 43.5 0.00 0.05 0.05 86 1008.2
20260507223524 17 22 19.3 43.5 0.00 0.05 0.05 83 1008.2
20260507223004 17 29 20.9 43.5 0.00 0.05 0.05 81 1008.0
20260507222504 17 25 17.7 43.5 0.00 0.05 0.05 81 1008.3
20260507222002 18 19 25.7 43.5 0.00 0.05 0.05 79 1008.0
20260507221502 18 21 19.3 43.5 0.00 0.05 0.05 79 1008.0
20260507221003 18 22 17.7 45.1 0.00 0.05 0.05 79 1007.9
20260507220503 18 20 25.7 45.1 0.00 0.05 0.05 76 1007.9
20260507220003 21 21 17.7 37.0 0.00 0.05 0.05 71 1007.7
20260507215503 23 25 24.1 37.0 0.00 0.05 0.05 63 1007.6
20260507215002 25 219 3.2 19.3 0.00 0.05 0.05 62 1007.0
20260507214502 25 196 8.0 27.4 0.00 0.05 0.05 60 1006.8
20260507214002 25 230 8.0 27.4 0.00 0.05 0.05 60 1006.8
20260507213524 25 216 6.4 24.1 0.00 0.05 0.05 61 1006.5
20260507213003 25 194 3.2 24.1 0.00 0.05 0.05 59 1006.4
20260507212503 25 218 9.7 24.1 0.00 0.05 0.05 60 1006.2
20260507212003 25 211 8.0 27.4 0.00 0.05 0.05 59 1006.2
20260507211502 25 221 8.0 27.4 0.00 0.05 0.05 60 1006.2
20260507211003 25 177 12.9 33.8 0.00 0.05 0.05 61 1006.3
20260507210503 24 226 12.9 33.8 0.00 0.05 0.05 61 1006.3
20260507210003 24 197 8.0 16.1 0.00 0.05 0.05 60 1006.3
20260507205504 24 233 6.4 19.3 0.00 0.05 0.05 61 1006.2
20260507205025 24 206 6.4 19.3 0.00 0.05 0.05 61 1006.3
20260507204503 24 241 4.8 16.1 0.00 0.05 0.05 61 1006.6
20260507204004 25 202 3.2 16.1 0.00 0.05 0.05 62 1006.5
20260507203502 25 176 8.0 19.3 0.00 0.05 0.05 59 1006.4
20260507203003 25 187 8.0 19.3 0.03 0.05 0.05 57 1006.4
20260507202504 25 231 8.0 32.2 0.03 0.05 0.05 59 1006.5
20260507202004 25 216 9.7 32.2 0.03 0.05 0.05 59 1006.6
20260507201503 25 215 8.0 20.9 0.03 0.05 0.05 59 1006.8
20260507201003 25 179 6.4 22.5 0.05 0.05 0.05 60 1006.7
20260507200524 25 177 9.7 22.5 0.05 0.05 0.05 60 1006.8
20260507200003 25 214 6.4 19.3 0.05 0.05 0.05 58 1006.7
20260507195504 26 222 6.4 17.7 0.05 0.05 0.05 57 1006.8
20260507195023 25 203 6.4 17.7 0.05 0.05 0.05 60 1007.0
20260507194503 25 242 3.2 14.5 0.05 0.05 0.05 60 1007.0
20260507194002 25 177 6.4 12.9 0.05 0.05 0.05 59 1007.1
20260507193524 25 222 4.8 11.3 0.05 0.05 0.05 62 1007.1
20260507193024 25 224 4.8 19.3 0.03 0.03 0.03 61 1007.3
20260507192503 24 232 9.7 19.3 0.03 0.03 0.03 61 1007.5
20260507192003 24 204 6.4 17.7 0.03 0.03 0.03 62 1007.5
20260507191503 25 202 4.8 19.3 0.03 0.03 0.03 59 1007.7
20260507191003 25 211 6.4 19.3 0.00 0.00 0.00 59 1007.6
20260507190524 25 255 4.8 17.7 0.00 0.00 0.00 63 1007.7
20260507190004 24 250 4.8 17.7 0.00 0.00 0.00 65 1007.8
20260507185503 23 278 4.8 22.5 0.00 0.00 0.00 65 1007.8
20260507185003 24 220 4.8 22.5 0.00 0.00 0.00 65 1007.7
20260507184525 24 217 4.8 19.3 0.00 0.00 0.00 68 1007.8
20260507184004 24 222 8.0 19.3 0.00 0.00 0.00 64 1007.8
20260507183524 24 242 1.6 16.1 0.00 0.00 0.00 67 1007.6
20260507183002 23 197 8.0 17.7 0.00 0.00 0.00 65 1007.8
20260507182524 23 196 11.3 17.7 0.00 0.00 0.00 64 1007.8
20260507182003 23 246 4.8 12.9 0.00 0.00 0.00 70 1007.9
20260507181502 23 238 8.0 12.9 0.00 0.00 0.00 68 1007.8
20260507181024 23 220 4.8 12.9 0.00 0.00 0.00 69 1007.7
20260507180502 23 206 4.8 12.9 0.00 0.00 0.00 70 1007.8
20260507180002 23 212 6.4 11.3 0.00 0.00 0.00 71 1007.9
20260507175503 23 31 3.2 12.9 0.00 0.00 0.00 75 1008.0
20260507175003 22 214 4.8 14.5 0.00 0.00 0.00 71 1008.2
20260507174503 22 234 6.4 16.1 0.00 0.00 0.00 74 1008.3
20260507174003 22 200 6.4 16.1 0.00 0.00 0.00 74 1008.4
20260507173503 22 201 6.4 11.3 0.00 0.00 0.00 78 1008.6
20260507173002 22 197 3.2 11.3 0.00 0.00 0.00 81 1008.6
20260507172504 21 309 1.6 8.0 0.00 0.00 0.00 82 1008.7
20260507172003 21 233 3.2 8.0 0.00 0.00 0.00 81 1008.7
20260507171503 21 254 1.6 11.3 0.00 0.00 0.00 82 1008.6
20260507171002 20 222 4.8 11.3 0.00 0.00 0.00 82 1008.4
20260507170504 20 237 3.2 11.3 0.00 0.00 0.00 84 1008.2
20260507170003 20 250 1.6 11.3 0.00 0.00 0.00 84 1008.3
20260507165503 20 205 4.8 11.3 0.00 0.00 0.00 86 1008.9
20260507165004 20 208 4.8 12.9 0.00 0.00 0.00 84 1008.8
20260507164503 20 199 1.6 12.9 0.00 0.00 0.00 84 1008.8
20260507164004 20 115 3.2 11.3 0.00 0.00 0.00 86 1008.7
20260507163504 20 227 3.2 11.3 0.00 0.00 0.00 86 1008.8
20260507163003 20 225 3.2 11.3 0.00 0.00 0.00 86 1008.7
20260507162503 20 172 4.8 19.3 0.00 0.00 0.00 89 1008.7
20260507162024 20 233 4.8 19.3 0.00 0.00 0.00 89 1009.2
20260507161523 19 212 6.4 11.3 0.00 0.00 0.00 89 1009.3
20260507161003 19 209 6.4 11.3 0.00 0.00 0.00 91 1009.4
20260507160503 19 203 3.2 9.7 0.00 0.00 0.00 92 1009.3
20260507160004 18 217 3.2 11.3 0.00 0.00 0.00 92 1009.3
20260507155504 18 249 3.2 12.9 0.00 0.00 0.00 92 1009.2
20260507155004 18 209 6.4 12.9 0.00 0.00 0.00 92 1009.0
20260507154503 18 212 3.2 9.7 0.00 0.00 0.00 92 1008.9
20260507154003 18 240 1.6 11.3 0.00 0.00 0.00 92 1008.6
20260507153504 18 232 4.8 11.3 0.00 0.00 0.00 93 1008.5
20260507153004 18 194 3.2 8.0 0.00 0.00 0.00 93 1008.2
20260507152504 18 177 4.8 8.0 0.00 0.00 0.00 93 1008.1
20260507152004 18 71 3.2 4.8 0.00 0.00 0.00 93 1008.0
20260507151503 18 71 3.2 4.8 0.00 0.00 0.00 93 1007.8
20260507151003 18 70 0.0 6.4 0.00 0.00 0.00 93 1008.0
20260507150503 18 83 4.8 6.4 0.00 0.00 0.00 93 1008.1
20260507150003 18 181 1.6 3.2 0.00 0.00 0.00 93 1008.4